RH
14 16 17 15 13 14 14 13 12 11 12 14 23 20 16 16 14 12 29 41 43 47 53 65 80 89 56 43 89 96 89 92 97 93 82 63 62 81 92 98 96 92 84 100
14 18 22 22 18 17 18 16 12 13 17 20 25 22 19 16 14 11 12 14 14 27 51 70 66 79 54 41 73 84 90 88 91 87 88 89 98 84 80 89 92 82 87 100
16 20 25 28 24 22 22 20 17 16 16 27 24 22 19 16 15 13 11 13 19 19 54 51 71 75 63 43 44 59 72 86 94 99 96 98 91 74 76 84 98 96 99 97
21 24 29 30 27 25 23 25 23 20 32 33 26 24 21 16 14 13 11 24 14 15 18 50 68 56 65 63 37 50 67 81 99 91 85 79 75 74 65 59 70 73 99 98
28 30 35 36 27 28 24 29 28 24 36 46 28 25 24 19 16 13 12 13 14 18 20 22 36 38 56 51 38 44 65 97 88 83 80 86 88 85 70 62 67 70 67 72
36 40 42 35 22 28 28 33 32 25 44 54 30 24 28 24 18 19 14 13 14 18 19 22 35 40 36 35 39 33 54 78 91 97 84 80 76 85 76 68 57 59 70 94
45 49 45 27 26 30 31 30 30 32 43 57 36 26 35 31 27 18 16 18 16 18 18 18 28 32 33 28 32 32 24 33 48 81 67 90 79 71 52 47 39 38 45 52
54 54 35 27 29 31 27 21 26 37 44 59 41 27 40 39 38 28 33 36 25 28 26 25 32 50 45 39 21 26 29 30 86 68 58 52 66 54 42 47 50 68 54 61
61 53 32 30 31 30 20 22 24 38 46 55 45 29 43 48 52 53 62 45 67 62 42 50 62 45 48 53 53 40 30 37 39 77 60 61 74 34 40 47 89 64 61 76
66 51 32 33 31 25 20 25 26 40 46 53 45 31 46 53 58 66 70 65 73 74 81 77 63 53 53 47 62 61 48 54 65 77 70 61 60 45 52 64 86 80 76 83
70 46 34 34 32 26 21 23 35 46 49 53 46 36 34 54 61 67 72 73 86 91 94 95 87 84 84 75 66 66 46 70 69 61 62 69 60 60 64 71 75 72 90 98
70 43 34 34 31 24 20 20 33 44 63 52 50 40 34 40 57 61 63 64 70 88 95 98 97 98 99 98 90 80 65 56 81 60 91 74 56 48 56 65 67 88 94 86
66 39 33 33 25 18 17 21 34 47 64 51 46 44 41 45 48 46 48 52 52 61 95 98 100 96 99 94 100 100 97 87 68 44 48 49 50 51 64 90 96 92 89 83
58 36 33 24 16 14 12 21 44 62 78 58 52 53 64 70 66 63 80 75 74 96 98 98 100 100 98 98 92 86 79 81 75 65 63 69 71 81 92 98 98 93 84 76
48 34 27 17 12 10 12 30 53 76 86 58 52 56 75 80 79 93 96 97 98 98 98 100 100 100 94 87 74 76 73 75 75 77 81 83 86 96 100 100 100 97 87 84
36 33 24 13 10 11 26 40 64 74 47 54 56 56 75 86 95 96 97 99 99 100 100 100 98 82 84 86 100 83 90 100 100 99 94 95 100 100 100 100 100 100 97 91
34 31 17 11 10 22 36 63 59 52 54 58 56 62 78 94 93 97 97 100 100 100 100 89 71 73 80 83 88 90 100 96 89 90 92 94 100 100 100 100 100 99 97 86
34 19 12 10 11 26 54 52 53 58 56 61 63 80 85 94 96 96 93 99 99 99 96 73 61 72 84 91 100 100 96 94 90 87 90 95 100 100 100 100 100 95 90 66
19 11 9 9 16 40 52 62 64 63 64 70 83 88 97 97 98 93 99 99 97 98 84 65 62 73 95 100 100 100 99 96 84 75 37 50 82 98 100 98 94 67 37 22
11 10 10 14 34 66 62 73 69 74 80 95 86 95 98 98 98 97 100 100 99 97 96 63 70 83 97 96 92 92 92 86 64 22 23 27 33 46 43 37 30 23 22 26
11 12 12 27 60 81 87 80 73 95 79 87 98 98 97 98 100 100 100 98 99 98 93 83 66 75 78 89 94 94 91 40 27 32 33 32 32 30 29 28 27 28 32 37
13 13 22 56 90 88 74 91 82 94 97 96 97 97 97 93 91 98 100 99 97 96 95 98 65 89 100 100 96 86 35 37 44 47 48 49 48 48 46 43 42 44 46 54
12 21 62 82 86 86 92 94 94 96 99 100 100 99 89 89 92 93 98 96 95 96 95 93 96 100 95 94 82 38 40 48 46 50 55 58 61 60 61 58 54 58 64 77
17 38 89 82 91 97 99 100 100 100 100 92 84 85 84 83 87 64 94 93 95 93 100 99 100 90 90 77 40 44 47 46 46 50 57 61 66 71 70 71 74 72 77 88
30 72 88 88 98 97 97 94 90 91 87 81 72 84 81 80 88 66 89 79 84 99 100 99 99 85 56 42 45 42 39 42 47 53 56 61 69 77 80 78 80 80 86 94
49 70 80 80 84 84 84 88 86 83 78 59 63 87 90 96 93 84 83 88 94 99 100 80 53 41 41 39 39 41 44 50 56 62 65 69 76 81 86 89 88 88 94 100
60 85 80 74 74 82 86 90 82 77 63 61 73 95 86 92 95 93 97 100 100 61 40 40 42 39 41 40 45 50 54 59 67 72 81 88 92 97 100 100 100 100 100 100
Wind_Speed
31 34 37 40 41 36 36 28 20 19 25 21 19 13 12 11 11 11 6 5 4 6 7 4 3 3 6 10 4 2 6 5 3 0 3 4 6 8 5 1 2 2 1 4
28 31 36 40 41 39 39 33 23 20 21 16 16 14 14 11 12 11 8 7 5 6 7 1 2 4 6 10 2 2 2 2 2 1 2 4 3 1 6 10 6 3 1 3
30 33 37 40 40 37 36 33 22 22 23 18 13 12 13 14 11 10 9 9 7 6 2 5 3 4 6 6 8 1 3 0 4 3 3 3 4 2 2 2 0 2 3 10
34 36 40 43 43 37 33 29 25 21 16 15 12 12 12 12 12 10 10 8 9 9 5 1 3 6 4 8 5 1 0 1 2 2 2 3 2 1 1 3 2 0 7 5
36 39 42 45 44 40 36 31 28 22 16 15 12 11 11 11 11 10 9 8 7 8 9 6 6 6 5 4 4 1 2 0 1 2 3 2 1 2 0 1 0 1 1 2
35 39 43 45 43 37 34 32 30 25 18 15 10 9 10 11 10 9 9 9 9 8 10 9 7 6 6 4 3 1 2 2 2 2 3 4 8 13 6 4 2 2 2 3
37 40 44 46 41 35 33 32 29 23 18 15 9 8 9 10 10 9 9 10 10 10 12 13 10 7 7 6 4 2 0 1 1 1 3 1 2 6 3 2 3 4 7 4
39 42 43 42 38 35 34 34 30 23 20 15 9 7 8 8 8 8 9 12 10 12 13 10 8 7 5 5 5 7 4 3 1 2 5 5 4 6 3 5 7 6 5 5
39 42 42 41 37 35 36 36 30 23 21 11 10 8 7 7 8 7 9 9 12 11 10 8 5 4 5 2 6 5 6 5 4 1 2 2 2 2 2 10 1 0 5 15
40 41 40 39 36 36 36 35 31 23 22 10 10 8 6 6 6 6 8 9 12 11 12 5 6 5 8 3 3 6 3 4 7 7 4 2 4 2 3 2 3 9 19 22
40 41 40 39 37 36 37 35 29 23 19 13 9 9 8 8 7 7 7 9 11 10 8 3 5 4 5 9 7 10 4 3 4 4 3 3 3 6 10 9 15 20 21 24
40 41 39 38 37 36 37 37 28 23 14 12 9 8 8 10 11 11 10 10 11 10 10 9 8 15 11 9 6 6 4 5 5 4 3 5 11 14 16 17 21 22 22 25
41 41 39 38 37 37 37 36 25 21 13 11 5 5 6 9 12 14 15 15 16 15 21 17 10 9 9 6 6 7 8 7 10 12 11 13 16 23 17 18 19 21 25 29
41 41 39 38 37 38 38 32 21 18 11 9 5 1 7 11 11 12 15 16 17 20 18 14 10 9 9 8 10 12 10 11 12 14 14 15 13 16 19 20 22 23 27 32
41 39 39 39 39 40 35 24 19 11 11 10 7 4 9 17 11 16 17 19 20 19 16 12 7 10 7 4 2 6 7 7 9 11 15 18 22 23 24 24 25 28 31 34
42 40 40 40 41 38 26 24 15 10 6 8 3 3 8 21 13 22 23 22 20 15 11 10 6 4 3 1 2 2 6 9 12 16 17 20 23 26 27 28 29 33 34 37
40 41 41 42 41 28 27 16 8 8 8 8 3 2 12 20 17 23 26 22 16 10 6 2 2 2 1 2 3 7 11 15 18 22 26 28 29 29 29 30 32 33 36 39
40 41 42 42 35 30 18 10 3 11 11 6 3 8 21 16 20 28 27 19 11 5 1 1 2 1 3 2 7 11 16 21 26 29 30 29 29 29 30 32 34 36 38 35
41 42 42 39 34 26 15 6 6 6 9 5 7 23 17 20 25 28 19 14 8 5 2 1 1 3 2 3 10 18 27 34 39 37 31 28 27 28 30 33 34 34 30 27
41 42 43 37 28 16 8 8 13 7 8 8 22 23 20 25 25 19 16 6 6 4 2 4 2 5 5 9 19 27 35 38 38 33 29 28 27 28 29 30 29 28 25 24
42 43 39 28 18 11 7 10 12 10 9 15 24 24 26 26 18 15 5 6 4 3 2 6 3 4 9 21 29 32 37 35 32 31 30 29 29 28 28 26 25 25 25 24
43 38 26 17 12 9 10 11 15 10 9 25 24 26 26 20 15 7 7 4 4 2 10 5 3 6 27 35 36 38 36 33 31 30 29 28 28 28 28 27 26 25 25 25
39 23 13 9 9 11 12 14 14 15 21 23 24 24 21 12 11 7 6 4 4 11 4 5 5 26 37 38 40 38 36 35 34 32 30 30 29 28 28 27 26 26 25 26
24 14 9 9 9 12 19 19 20 20 22 21 22 19 10 13 7 8 6 7 7 5 5 5 24 39 38 39 39 38 36 35 34 33 32 31 30 28 28 28 27 26 25 26
15 8 8 16 15 16 17 20 21 20 20 20 18 12 9 10 5 7 6 9 7 7 9 34 39 38 39 38 38 37 36 35 34 33 33 32 31 29 28 28 27 27 26 26
10 9 12 15 17 18 19 20 19 19 16 16 15 9 6 6 6 8 5 12 5 20 35 35 35 36 37 37 37 37 37 37 36 34 34 32 32 31 29 28 28 27 27 26
7 11 15 17 18 19 20 19 19 14 13 18 13 7 7 7 6 10 9 17 30 31 31 32 34 36 38 39 38 38 38 38 37 36 35 33 32 32 30 28 27 27 26 26
Wind_Direction
356 355 354 353 355 360 1 2 6 358 357 0 13 19 11 1 357 353 346 340 338 322 332 358 339 336 308 343 41 71 267 251 273 74 297 279 247 238 223 253 26 303 293 157
352 354 355 355 356 357 357 359 2 2 358 6 8 8 9 6 360 -0 1 1 359 344 350 34 4 336 326 4 359 218 273 224 273 230 150 144 169 231 228 236 267 298 37 154
352 354 355 357 359 359 357 359 2 350 0 7 6 3 359 357 2 1 4 12 9 10 345 345 348 314 309 333 14 68 193 120 7 6 12 60 163 76 70 102 307 5 63 160
353 353 355 354 356 360 357 4 2 356 342 358 1 5 359 357 356 0 11 5 8 10 5 38 276 307 344 318 338 26 218 63 16 342 357 241 221 202 260 320 7 202 138 200
352 351 352 354 355 356 356 3 360 351 349 352 354 358 358 356 355 0 0 4 0 5 0 343 306 316 322 301 320 261 179 210 218 304 117 106 122 129 167 155 308 286 33 274
352 351 350 352 354 355 355 358 353 349 348 344 343 344 346 351 354 360 355 351 348 351 344 340 320 303 307 297 334 351 174 205 291 172 185 270 264 233 231 244 234 264 221 225
350 351 351 351 354 355 353 351 348 344 340 330 326 332 342 349 354 352 352 352 341 340 337 330 321 307 293 281 261 272 306 178 254 356 321 263 153 180 230 276 292 289 251 244
349 350 351 350 351 349 349 348 344 338 335 323 305 315 332 346 353 355 354 352 350 339 338 341 347 342 359 341 276 263 256 310 249 242 262 256 290 239 194 5 321 289 212 324
348 348 348 349 348 345 344 346 340 331 331 326 300 300 323 342 350 355 1 357 357 351 350 354 352 324 325 357 311 304 271 256 228 229 290 280 227 159 225 333 91 179 229 310
346 347 346 345 344 342 341 344 337 329 328 317 286 285 305 317 336 347 355 349 357 358 352 343 301 289 315 292 284 305 304 299 241 247 251 298 283 19 299 358 240 282 307 309
344 344 344 342 341 339 338 339 335 327 323 310 289 277 290 300 306 324 338 348 349 345 6 317 298 288 280 293 290 287 271 286 254 222 223 241 264 296 300 295 302 308 306 306
342 343 341 340 339 336 335 336 334 328 317 309 296 289 290 294 299 303 309 316 322 316 329 313 316 300 291 297 304 311 292 250 267 237 215 277 297 305 299 293 296 297 301 306
341 340 339 337 336 333 334 335 330 329 316 317 294 304 305 312 315 308 302 305 306 305 310 311 312 293 277 293 287 290 298 287 282 276 268 281 288 298 298 293 293 299 305 311
340 338 336 336 334 332 333 333 329 327 316 324 318 337 15 350 335 331 324 315 308 307 316 314 302 289 291 282 282 289 284 270 285 289 287 289 293 298 296 296 297 301 307 317
338 337 335 335 334 334 334 334 334 331 322 310 314 198 15 3 344 339 336 322 319 318 313 309 300 296 286 315 53 43 18 352 336 316 314 302 301 299 299 296 297 300 304 312
336 336 336 335 336 336 339 337 337 336 343 338 339 180 349 348 334 338 340 332 325 315 303 293 287 276 274 208 99 18 337 328 320 315 308 302 300 300 297 294 294 299 304 308
336 337 336 337 338 341 343 337 346 26 15 4 45 23 335 339 336 339 337 335 331 322 311 236 289 307 295 84 63 338 331 328 323 315 306 300 300 298 298 296 298 301 305 308
336 336 337 338 341 341 344 344 112 35 22 16 12 344 333 327 332 336 337 342 347 6 6 213 2 97 116 78 348 337 331 329 327 324 312 302 297 296 296 297 299 302 305 307
336 336 338 340 344 345 1 28 17 0 0 15 4 341 335 334 334 336 339 343 360 8 57 25 329 159 129 347 327 327 330 330 327 323 318 309 301 296 295 297 299 302 304 303
337 338 343 342 344 352 9 37 10 354 6 15 353 344 344 337 338 333 331 335 353 358 7 343 275 229 240 286 310 318 322 322 321 322 321 316 312 307 306 307 308 309 308 305
340 341 341 341 350 11 35 19 354 3 354 352 341 337 337 340 341 327 324 327 329 353 334 325 259 278 303 328 319 322 323 324 324 323 322 319 317 314 313 312 310 309 308 307
340 339 342 355 18 27 13 0 353 342 357 344 343 340 340 347 348 342 339 339 343 326 324 307 300 350 335 328 327 328 327 327 326 323 321 319 316 314 313 312 310 308 306 305
339 347 3 6 22 16 358 350 344 347 342 341 340 338 343 352 356 337 343 345 340 325 340 317 302 327 325 325 325 327 328 326 325 324 322 319 317 314 312 310 308 307 306 304
348 350 23 34 2 355 355 352 348 342 342 345 342 345 360 1 2 350 344 333 333 335 338 311 316 319 324 325 326 326 326 325 324 323 321 319 316 314 311 309 308 306 305 305
359 9 16 0 353 348 348 347 348 349 348 345 348 356 1 8 12 11 339 347 343 331 317 317 319 323 323 325 325 325 325 325 324 323 321 320 317 315 312 309 308 306 306 306
10 14 357 355 350 350 350 350 352 352 359 8 3 357 359 5 2 357 338 334 306 308 313 320 322 322 324 324 326 326 326 325 324 324 321 320 317 316 314 311 307 306 306 307
17 4 353 351 350 352 351 351 353 5 13 11 6 1 11 341 346 342 322 317 315 321 325 326 324 325 326 327 327 327 325 324 323 322 321 320 318 316 314 311 308 307 306 306